Location: downtown San Diego
(32.7310°N, 117.1990°W)
Time: 06:18:52
(UTC-08:00)

Cosmos 44 - Pass Details

Date: 12 July 2018
Orbit: 571 x 791 km, 65.1° (Epoch: 18 December)

Event Time Altitude Azimuth Distance (km) Brightness Sun altitude
Rises 20:52:45 0° 191° (SSW) 2,853 6.2 -10.6°
Reaches altitude 10° 20:55:01 10° 185° (S) 1,982 5.4 -11.0°
Maximum altitude 20:59:17 45° 113° (ESE) 880 3.4 -11.7°
Drops below altitude 10° 21:03:52 10° 41° (NE) 2,126 5.8 -12.5°
Sets 21:06:21 0° 35° (NE) 3,085 6.7 -12.9°
